TimeEDT,TemperatureF,Dew PointF,Humidity,Sea Level PressureIn,VisibilityMPH,Wind Direction,Wind SpeedMPH,Gust SpeedMPH,PrecipitationIn,Events,Conditions,WindDirDegrees,DateUTC
12:53 AM,79.0,61.0,54,30.10,10.0,East,11.5,20.7,N/A,,Clear,80,2013-04-25 04:53:00
1:53 AM,79.0,60.1,52,30.09,10.0,East,11.5,16.1,N/A,,Clear,80,2013-04-25 05:53:00
2:53 AM,79.0,59.0,50,30.08,10.0,East,9.2,-,N/A,,Clear,80,2013-04-25 06:53:00
3:53 AM,78.1,60.1,54,30.08,10.0,East,9.2,-,N/A,,Clear,80,2013-04-25 07:53:00
4:53 AM,78.1,60.1,54,30.07,10.0,East,6.9,-,N/A,,Clear,80,2013-04-25 08:53:00
5:53 AM,78.1,59.0,52,30.08,10.0,East,9.2,-,N/A,,Clear,80,2013-04-25 09:53:00
6:53 AM,77.0,59.0,54,30.10,10.0,East,5.8,-,N/A,,Clear,80,2013-04-25 10:53:00
7:53 AM,79.0,61.0,54,30.13,10.0,ENE,8.1,-,N/A,,Clear,60,2013-04-25 11:53:00
8:53 AM,81.0,61.0,50,30.14,10.0,ENE,9.2,-,N/A,,Clear,60,2013-04-25 12:53:00
9:53 AM,82.0,62.1,51,30.15,10.0,NE,11.5,-,N/A,,Clear,50,2013-04-25 13:53:00
10:53 AM,84.0,59.0,43,30.16,10.0,ENE,11.5,-,N/A,,Clear,60,2013-04-25 14:53:00
11:53 AM,84.0,60.1,44,30.16,10.0,NE,11.5,-,N/A,,Scattered Clouds,40,2013-04-25 15:53:00
12:53 PM,82.9,61.0,47,30.16,10.0,ENE,8.1,-,N/A,,Mostly Cloudy,60,2013-04-25 16:53:00
1:53 PM,84.9,57.9,40,30.16,10.0,NE,11.5,-,N/A,,Clear,40,2013-04-25 17:53:00
2:53 PM,84.9,62.1,46,30.14,10.0,East,8.1,-,N/A,,Clear,90,2013-04-25 18:53:00
3:53 PM,86.0,59.0,40,30.13,10.0,ENE,9.2,-,N/A,,Clear,70,2013-04-25 19:53:00
4:53 PM,84.9,59.0,41,30.11,10.0,ESE,8.1,-,N/A,,Clear,110,2013-04-25 20:53:00
5:53 PM,82.9,59.0,44,30.12,10.0,Variable,6.9,-,N/A,,Clear,0,2013-04-25 21:53:00
6:53 PM,82.0,57.0,42,30.13,10.0,ENE,11.5,-,N/A,,Clear,70,2013-04-25 22:53:00
7:53 PM,80.1,59.0,48,30.13,10.0,ENE,10.4,-,N/A,,Clear,70,2013-04-25 23:53:00
8:53 PM,80.1,59.0,48,30.15,10.0,ENE,11.5,-,N/A,,Clear,70,2013-04-26 00:53:00
9:53 PM,80.1,57.0,45,30.17,10.0,ENE,10.4,-,N/A,,Clear,60,2013-04-26 01:53:00
10:53 PM,79.0,57.9,48,30.18,10.0,ENE,12.7,-,N/A,,Clear,60,2013-04-26 02:53:00
11:53 PM,78.1,57.9,50,30.19,10.0,ENE,8.1,-,N/A,,Clear,70,2013-04-26 03:53:00